Showing default

SOYUZ MS-26, 61043

Orbit data source: Space-Track

SOYUZ MS-26, 61043 is a payload satellite owned by RKKE (CIS) in LEO that was launched on Wed, 11 Sep 2024 UTC via a SOYUZ-2-1A launch vehicle from the Tyuratam Missile And Space Complex (TTMTR). Payloads include a variety of satellites, spacecraft, and rockets equipped with specific instruments for various scientific and technological missions. These include communications satellites like Starlink; space stations such as the ISS; scientific satellites like the Hubble; Earth observation satellites from companies like Planet Labs, Umbra, and HawkEye 360; GPS; miniature CubeSats for education and research; and military/defense satellites.

Loading next visibility...
SOYUZ MS-26 details
Identifier
61043, 2024-162A
Orbit
LEO
Last TLE update1 day ago
Origin
Flag of CISRKKE (CIS)
ManufacturerRKKE
MissionOperational spacecraft
Bus & Motor7K-S A48, SA
Mass7,152 kg wet, 2,900 kg dry
Launch date (UTC)
2024-09-11 (3 months ago)
Launch vehicle
SOYUZ-2-1A
Launch site
Tyuratam Missile And Space Complex (TTMTR)
Object type
Payload
Rocket body
Debris
Shape & HBRUnknown
Radar Cross SectionLarge (>1 m²)

Expand to show TLE details & history

TLE from 1 day ago
0 SOYUZ MS-26
1 61043U 24162A   24355.53279392  .00012054  00000-0  21291-3 0  9998
2 61043  51.6381 112.1202 0007884   2.0925 358.0096 15.50765570487331
Epoch: 2024-12-20T12:47Z
Definitive object data (Epoch: 2024-12-20T12:47:13.394Z)
Latitude-0.00002°
Longitude-169.28257°
Altitude409.879 km
Speed7.669 km/s
True Right ascension07h 28m 28s
True Declination0° 00' 00"
Sunlit
Object was in full shadow at TLE epoch
Visualization TLE readout
Latitude23.10355°
Longitude-13.83259°
Altitude419.363 km
Speed7.661 km/s
Apparent Right ascension20h 18m 27s
Apparent Declination-9° 54' 35"
Sunlit
Object is in daylight
Visualization observer readout
Local Sidereal Time11:39:37
Azimuth70.266° E
Elevation-36.38°
Doppler factor1
Orbital elements
Apogee altitude420.354 km
Perigee altitude409.642 km
Semi-major axis6,793.135 km
Eccentricity0.0007884
Inclination51.6381°
RAAN112.1202°
Arg. of periapsis2.0925°
True anomaly358.00646°
Mean anomaly358.0096°
Eccentric anomaly358.00803°
Mean motion3.87648 °/min
BSTAR0.00021291
Orbital period92.87 mins
Loading maneuver chart data...
Loading historical data...
Loading historical data...
Loading historical data...
Loading historical data...
Loading historical data...
Loading historical data...
Loading historical data...
Other satellites on launch #162 in the year 2024 (2024-09-11 UTC)

SOYUZ MS-26 Visibility forecast

Observer location: undefined°, undefined

Span
Click to sort rows by Start time (UTC) header in descending order
Start Az.
Max El. time (UTC)
Max El. Az.
Max El.
End time (UTC)
End Az.
4 mins2024-12-21 17:07:47.457Z314.053° NW2024-12-21 17:09:47.457Z92.952° ESE42.481°2024-12-21 17:11:47.457Z121.399° SE
4 mins2024-12-22 09:49:47.457Z174.776° S2024-12-22 09:50:47.457Z138.571° SSE28.892°2024-12-22 09:53:47.457Z69.931° E
4 mins2024-12-22 11:25:47.457Z283.094° WNW2024-12-22 11:27:47.457Z340.81° N25.597°2024-12-22 11:29:47.457Z28.184° NE
|